This demonstration page uses our WeatherBlox Daily Observations layout. Learn more.

Left ArrowRight Arrow

40.92945, -100.16068

Hourly Observations for February 17, 2018

Temp ( °F °C ) Dew Point ( °F °C ) Humidity (%) Winds ( mph kmh ) Pressure ( in mb ) Visibility ( mi km ) Precip ( " mm )
12:15 am 00:15 Clear 30 -1 20 -6.7 66 66 S 9 15 30.03 1017 10 16 N/A
12:35 am 00:35 Clear 30 -1.1 20 -6.5 67 67 S 12 19 30.03 1017 10 16 N/A
12:55 am 00:55 Clear 30 -1.1 20 -6.5 67 67 S 13 20 30.03 1017 10 16 N/A
1:15 am 01:15 Clear 29 -1.5 20 -6.6 69 69 S 12 19 30.03 1017 10 16 N/A
1:35 am 01:35 Clear 29 -1.5 20 -6.5 69 69 S 10 17 30.00 1016 10 16 N/A
1:55 am 01:55 Clear 29 -1.6 20 -6.5 70 70 S 13 20 30.00 1016 10 16 N/A
2:15 am 02:15 Clear 30 -1.2 20 -6.5 68 68 S 16 26 29.97 1015 10 16 N/A
2:35 am 02:35 Clear 29 -1.4 20 -6.5 69 69 S 14 22 29.97 1015 10 16 N/A
2:55 am 02:55 Partly Cloudy 29 -1.5 20 -6.7 68 68 SSW 14 22 29.94 1014 10 16 N/A
3:15 am 03:15 Clear 29 -1.5 19 -7 67 67 SSW 16 26 29.94 1014 10 16 N/A
3:35 am 03:35 Clear 29 -1.8 19 -7 68 68 SW 12 19 29.97 1015 10 16 N/A
3:55 am 03:55 Clear 29 -1.7 19 -7.1 67 67 SSW 16 26 29.94 1014 10 16 N/A
4:15 am 04:15 Clear 29 -1.9 19 -7.1 68 68 SSW 15 24 29.94 1014 10 16 N/A
4:35 am 04:35 Clear 28 -2.3 19 -7.2 69 69 SW 13 20 29.97 1015 10 16 N/A
4:55 am 04:55 Clear 28 -2.5 19 -7.2 70 70 WSW 5 7 30.00 1016 10 16 N/A
5:15 am 05:15 Clear 26 -3.3 18 -7.6 72 72 NNW 7 11 30.06 1018 10 16 N/A
5:35 am 05:35 Clear 24 -4.3 18 -7.6 78 78 NW 7 11 30.06 1018 10 16 N/A
5:55 am 05:55 Clear 24 -4.6 18 -7.7 79 79 WNW 3 6 30.06 1018 10 16 N/A
6:15 am 06:15 Clear 23 -4.9 18 -7.6 82 82 W 7 11 30.06 1018 10 16 N/A
6:35 am 06:35 Clear 22 -5.8 17 -8.2 83 83 WNW 6 9 30.06 1018 10 16 N/A
6:55 am 06:55 Clear 21 -6.1 17 -8.4 84 84 NW 7 11 30.12 1020 10 16 N/A
7:15 am 07:15 Clear 21 -6.3 16 -8.8 83 83 NNW 8 13 30.12 1020 10 16 N/A
7:35 am 07:35 Sunny 21 -6.1 17 -8.3 85 85 NW 10 17 30.15 1021 10 16 N/A
7:55 am 07:55 Sunny 22 -5.3 18 -7.6 84 84 WNW 8 13 30.12 1020 10 16 N/A
8:15 am 08:15 Sunny 23 -5.1 19 -7.5 83 83 WNW 8 13 30.12 1020 10 16 N/A
8:35 am 08:35 Sunny 25 -3.9 20 -6.5 82 82 WNW 12 19 30.15 1021 10 16 N/A
8:55 am 08:55 Sunny 27 -2.9 22 -5.7 81 81 WNW 15 24 30.15 1021 10 16 N/A
9:15 am 09:15 Sunny 30 -1.1 24 -4.6 77 77 WNW 15 24 30.12 1020 10 16 N/A
9:35 am 09:35 Sunny 31 -0.6 24 -4.2 77 77 WNW 12 19 30.12 1020 10 16 N/A
9:55 am 09:55 Sunny 32 -0.1 25 -3.9 76 76 WNW 12 19 30.15 1021 10 16 N/A
10:15 am 10:15 Sunny 34 0.9 26 -3.3 74 74 WNW 12 19 30.15 1021 10 16 N/A
10:35 am 10:35 Sunny 36 2.2 26 -3.1 68 68 W 10 17 30.12 1020 10 16 N/A
10:55 am 10:55 Sunny 38 3.5 26 -3.6 60 60 WNW 8 13 30.12 1020 10 16 N/A
11:15 am 11:15 Sunny 39 4 27 -3 61 61 W 7 11 30.09 1019 10 16 N/A
11:35 am 11:35 Sunny 41 4.8 27 -2.8 58 58 WNW 9 15 30.09 1019 10 16 N/A
11:55 am 11:55 Sunny 42 5.5 26 -3.2 54 54 WNW 12 19 30.09 1019 10 16 N/A
12:15 pm 12:15 Sunny 42 5.5 27 -2.7 56 56 WNW 14 22 30.09 1019 10 16 N/A
12:35 pm 12:35 Sunny 43 6 27 -2.9 53 53 WNW 14 22 30.12 1020 10 16 N/A
12:55 pm 12:55 Sunny 43 6.2 27 -2.6 54 54 WNW 14 22 30.09 1019 10 16 N/A
1:15 pm 13:15 Sunny 44 6.5 27 -2.8 52 52 WNW 12 19 30.09 1019 10 16 N/A
1:35 pm 13:35 Sunny 44 6.6 28 -2.2 54 54 WNW 13 20 30.09 1019 10 16 N/A
1:55 pm 13:55 Sunny 45 7.1 27 -2.6 50 50 WNW 12 19 30.06 1018 10 16 N/A
2:15 pm 14:15 Sunny 45 7.4 27 -3 48 48 WNW 12 19 30.06 1018 10 16 N/A
2:35 pm 14:35 Sunny 46 7.6 27 -3 47 47 WNW 10 17 30.06 1018 10 16 N/A
2:55 pm 14:55 Sunny 46 7.8 26 -3.2 46 46 WNW 8 13 30.06 1018 10 16 N/A
3:15 pm 15:15 Sunny 46 8 27 -3 46 46 NW 7 11 30.06 1018 10 16 N/A
3:35 pm 15:35 Sunny 46 7.9 26 -3.4 45 45 NNW 8 13 30.06 1018 10 16 N/A
3:55 pm 15:55 Sunny 46 7.7 25 -4.1 43 43 N 7 11 30.06 1018 10 16 N/A
4:15 pm 16:15 Sunny 46 7.6 25 -3.9 44 44 N 5 7 30.06 1018 10 16 N/A
4:35 pm 16:35 Sunny 45 7.4 25 -3.7 46 46 NNE 5 7 30.06 1018 10 16 N/A
4:55 pm 16:55 Sunny 45 7.2 25 -3.8 46 46 NE 3 6 30.06 1018 10 16 N/A
5:15 pm 17:15 Sunny 44 6.8 27 -2.8 51 51 E 5 7 30.09 1019 10 16 N/A
5:35 pm 17:35 Sunny 42 5.6 26 -3.5 52 52 E 7 11 30.09 1019 10 16 N/A
5:55 pm 17:55 Sunny 42 5.3 24 -4.5 50 50 E 7 11 30.09 1019 10 16 N/A
6:15 pm 18:15 Sunny 39 4.1 27 -2.7 62 62 ESE 9 15 30.09 1019 10 16 N/A
6:35 pm 18:35 Clear 38 3.5 28 -2.3 66 66 ESE 8 13 30.12 1020 10 16 N/A
6:55 pm 18:55 Clear 37 2.9 28 -2.2 69 69 SE 8 13 30.12 1020 10 16 N/A
7:15 pm 19:15 Clear 37 2.7 28 -2.2 70 70 SE 8 13 30.12 1020 10 16 N/A
7:35 pm 19:35 Clear 37 2.5 28 -2.4 70 70 SE 8 13 30.12 1020 10 16 N/A
7:55 pm 19:55 Clear 37 2.5 26 -3.6 64 64 SE 7 11 30.12 1020 10 16 N/A
8:15 pm 20:15 Clear 35 1.6 25 -3.8 68 68 SE 9 15 30.12 1020 10 16 N/A
8:35 pm 20:35 Clear 36 2.3 25 -3.8 64 64 SE 9 15 30.09 1019 10 16 N/A
8:55 pm 20:55 Clear 36 2 25 -3.9 65 65 SE 8 13 30.09 1019 10 16 N/A
9:15 pm 21:15 Clear 34 1 26 -3.5 72 72 SSE 9 15 30.09 1019 10 16 N/A
9:35 pm 21:35 Clear 34 1.1 25 -3.7 71 71 SSE 12 19 30.09 1019 10 16 N/A
9:55 pm 21:55 Clear 34 1.2 25 -4.1 68 68 SSE 10 17 30.06 1018 10 16 N/A
10:15 pm 22:15 Clear 35 1.8 24 -4.7 62 62 SSE 13 20 30.06 1018 10 16 N/A
10:35 pm 22:35 Clear 36 2.1 23 -4.9 60 60 SSE 15 24 30.06 1018 10 16 N/A
10:55 pm 22:55 Clear 36 2.2 23 -5.1 59 59 SSE 14 22 30.03 1017 10 16 N/A
11:15 pm 23:15 Clear 37 3 22 -5.7 53 53 SSE 16 26 29.97 1015 10 16 N/A
11:35 pm 23:35 Clear 36 2.4 22 -5.5 56 56 SSE 15 24 30.00 1016 10 16 N/A
11:55 pm 23:55 Clear 35 1.9 22 -5.7 57 57 SSE 12 19 30.00 1016 10 16 N/A

Powered by AerisWeather